星链-30382 (STARLINK-30382 )

导读 | 星芒AI

STARLINK-30382 是 SpaceX Starlink 项目中的一颗低轨通信卫星,属于第三代星链卫星(v1.5 或 v2 版本)。它于 2023 年发射,运行在约 550 公里的轨道高度,旨在为全球用户提供高速互联网服务。该卫星采用先进推进系统和激光通信技术,提高网络稳定性和数据传输效率。作为 Starlink 卫星群的一部分,STARLINK-30382 有助于扩大覆盖范围,特别是在偏远和网络基础设施薄弱的地区。

基本信息
目录编号:
57786
目录名称:
STARLINK-30382
国际标识:
2023-134R
轨道中心:
EARTH
卫星名称:
星链-30382
卫星全名:
星链-30382 (STARLINK-30382 )
卫星状态:
在轨 (已飞行787 天)
发射日期:
2023-09-04 UTC
国别 :
美国 (US)
星等 :
--
轨道信息
数据来源 国际轨道数据 AOE轨道数据
星历时间 2025-10-30T08:03:55+0800
22小时前
查看轨道信息
2025-10-28T11:00:00+0800
2天前
查看轨道信息
半长轴 6937.222km 6937.191km
偏心率 0.000109 0.0000736
轨道倾角 43.003° 43.006°
近地点辐角 264.810° 248.233°
升交点赤经 187.527° 197.733°
平近点角 95.261° 23.395°
近地点 558.33km 558.545km
远地点 559.844km 559.567km
周期 95.838分钟 95.837分钟
每日圈数 15.025344 15.025446
详细信息
固有亮度:
5
最大亮度:
0.3
卫星平台:
Starlink v2.0 mini
覆盖范围:
全球
运营商:
太空探索技术公司
运营商所在国:
美国
制造商(研发单位):
太空探索技术公司
制造商所在国:
美国
使用方式:
暂无
卫星简介
星链(Starlink)计划是由太空探索技术公司(SpaceX)提出的一个巨型低轨卫星互联网星座项目,计划在2019年至2024年间在太空搭建由约1.2万颗卫星组成的“星链”网络,其中1584颗将部署在地球上空550千米处的近地轨道,并从2020年开始工作。该卫星仍在工作。
2D轨道图
3D轨道图
轨道高度分析图
轨道倾角分析图
轨道综合分析图
查看轨道综合分析图